Simultaneous Nadir Overpasses (SNOs) Predictions

Prediction of SNOs between GOES-15 and TERRA Satellite Orbit:

Table of predicted SNOs for the next 14.0 days since TLE Epoch: 9/21/2013
Index Date Time (GOES-15) GOES-15 Lat,Lon TERRA Lat,Lon Distance(km) Time Diff (sec)
1 09/22/2013 19:21:48 -0.39,-135.46 -0.97,-132.76 307.01 80
2 09/23/2013 07:43:12 0.40,-135.46 -0.13,-137.96 283.79 80
3 09/25/2013 07:28:19 0.39,-135.44 0.48,-134.99 50.53 80
4 09/27/2013 07:16:06 0.39,-135.41 1.10,-132.03 384.38 80
5 09/27/2013 19:37:21 -0.39,-135.40 0.00,-137.18 203.32 80
6 09/29/2013 19:27:48 -0.39,-135.37 -0.63,-134.22 130.09 80
7 09/30/2013 07:49:11 0.39,-135.37 -0.47,-139.41 459.76 80
8 10/01/2013 19:15:35 -0.38,-135.33 -1.27,-131.26 463.10 80
9 10/02/2013 07:36:59
